GFSNE_850_temp_045.txt.gz
Temp
-2 -2 -2 -2 -2 -2 -3 -3 -3 -3 -3 -2 -2 -2 -2 -2 -3 -3 -3 -3 -4 -4 -4 -4 -5 -4 -4 -3 -3 -2 -1 -1 -0 2 3 5 5 6
-2 -2 -2 -2 -3 -3 -4 -3 -3 -3 -3 -3 -3 -3 -3 -3 -3 -4 -4 -5 -5 -4 -5 -4 -4 -4 -4 -3 -3 -2 -2 -2 -1 0 2 3 4 5
-3 -3 -3 -3 -4 -4 -3 -3 -3 -3 -4 -4 -4 -4 -4 -5 -5 -5 -5 -5 -5 -5 -5 -5 -5 -5 -5 -4 -3 -3 -2 -2 -1 -1 1 2 3 4
-3 -4 -4 -4 -4 -4 -3 -4 -4 -4 -4 -4 -4 -5 -6 -6 -6 -6 -6 -6 -6 -5 -5 -6 -6 -6 -5 -5 -4 -3 -3 -3 -2 -1 -1 1 1 3
-4 -4 -4 -4 -4 -4 -5 -5 -5 -6 -6 -6 -6 -7 -7 -7 -7 -7 -7 -7 -6 -6 -6 -5 -5 -5 -6 -5 -4 -4 -3 -3 -2 -2 -1 -2 -0 1
-5 -5 -5 -5 -6 -7 -8 -8 -7 -7 -7 -7 -7 -7 -7 -8 -7 -7 -7 -7 -7 -6 -6 -6 -6 -6 -6 -5 -4 -4 -4 -3 -3 -2 -1 -1 -2 -1
-5 -5 -5 -6 -7 -8 -9 -9 -9 -9 -9 -9 -9 -9 -8 -8 -8 -7 -8 -7 -7 -7 -7 -6 -6 -6 -5 -6 -5 -4 -4 -4 -3 -2 -2 -2 -2 -2
-5 -6 -6 -7 -7 -8 -9 -10 -10 -11 -10 -10 -9 -9 -9 -8 -8 -8 -8 -8 -8 -7 -7 -7 -7 -6 -6 -5 -6 -5 -5 -5 -4 -3 -3 -3 -3 -3
-6 -7 -7 -7 -8 -8 -9 -10 -10 -10 -10 -10 -10 -9 -9 -9 -9 -9 -9 -9 -8 -8 -8 -7 -7 -7 -7 -6 -6 -6 -6 -5 -5 -4 -3 -3 -3 -4
-7 -7 -8 -8 -9 -9 -10 -11 -11 -10 -10 -10 -10 -10 -10 -10 -10 -10 -9 -9 -9 -8 -8 -7 -7 -7 -7 -7 -6 -6 -6 -5 -5 -5 -4 -3 -3 -4
-8 -8 -8 -9 -10 -10 -10 -12 -11 -11 -10 -11 -11 -11 -11 -10 -10 -10 -9 -9 -8 -8 -8 -8 -7 -7 -7 -7 -6 -6 -6 -6 -5 -5 -5 -5 -3 -3
-8 -8 -9 -9 -10 -10 -10 -12 -12 -11 -12 -12 -11 -10 -10 -10 -10 -9 -9 -9 -8 -8 -8 -8 -7 -7 -7 -6 -6 -6 -7 -6 -5 -5 -5 -5 -5 -4
-9 -9 -9 -10 -9 -10 -10 -11 -12 -12 -12 -12 -11 -11 -11 -10 -10 -10 -10 -9 -9 -9 -8 -8 -8 -7 -7 -7 -6 -6 -6 -6 -6 -5 -5 -5 -5 -5
-10 -10 -10 -9 -9 -9 -10 -11 -11 -12 -12 -12 -11 -11 -11 -11 -11 -10 -10 -9 -9 -9 -9 -8 -8 -8 -7 -7 -6 -6 -6 -6 -6 -6 -6 -5 -5 -5
-10 -10 -9 -9 -9 -10 -12 -11 -11 -12 -13 -12 -12 -12 -11 -11 -11 -10 -9 -9 -8 -8 -8 -8 -8 -8 -8 -7 -7 -6 -6 -6 -6 -6 -6 -6 -6 -5
-10 -10 -9 -10 -11 -11 -11 -11 -12 -12 -13 -12 -12 -12 -12 -11 -11 -11 -10 -9 -8 -7 -7 -8 -8 -8 -8 -8 -7 -7 -6 -6 -6 -6 -6 -6 -6 -6
-10 -10 -11 -10 -10 -10 -11 -11 -11 -12 -12 -13 -12 -12 -12 -12 -11 -11 -11 -10 -9 -9 -8 -8 -8 -7 -7 -8 -7 -7 -6 -6 -6 -6 -6 -6 -6 -6
-10 -11 -10 -10 -10 -11 -11 -11 -11 -12 -12 -13 -13 -12 -12 -13 -12 -11 -11 -11 -10 -9 -9 -9 -8 -8 -7 -7 -7 -7 -6 -6 -7 -7 -7 -7 -7 -6
-10 -11 -10 -10 -10 -11 -11 -11 -11 -12 -12 -13 -13 -13 -13 -13 -13 -12 -11 -11 -11 -10 -10 -9 -9 -8 -8 -6 -7 -7 -7 -7 -7 -7 -7 -7 -7 -6
-11 -10 -10 -10 -10 -10 -10 -11 -12 -13 -13 -13 -14 -13 -13 -13 -13 -12 -12 -12 -12 -11 -10 -10 -9 -10 -10 -10 -9 -8 -8 -8 -8 -7 -7 -7 -7 -7
-10 -10 -9 -10 -10 -10 -11 -12 -13 -13 -13 -13 -14 -14 -14 -13 -13 -13 -13 -13 -12 -11 -11 -11 -11 -10 -10 -9 -8 -8 -8 -8 -8 -8 -8 -8 -7 -8
-9 -10 -10 -10 -10 -11 -11 -12 -13 -13 -13 -13 -13 -14 -14 -14 -13 -13 -13 -13 -13 -13 -12 -11 -11 -10 -10 -9 -9 -8 -8 -8 -9 -9 -8 -8 -8 -7
-9 -9 -10 -10 -10 -11 -12 -12 -12 -12 -13 -13 -14 -14 -14 -14 -14 -14 -13 -13 -13 -13 -13 -12 -11 -10 -10 -10 -9 -9 -9 -9 -9 -9 -9 -9 -9 -8

GFSNE_850_temp_048.txt.gz
Temp
-1 -1 -2 -2 -2 -3 -3 -3 -3 -3 -3 -3 -3 -3 -3 -3 -3 -3 -4 -4 -4 -4 -4 -4 -4 -4 -4 -5 -4 -4 -3 -3 -2 -2 -1 -1 1 3
-1 -2 -2 -2 -3 -3 -3 -3 -3 -3 -4 -3 -3 -4 -4 -4 -4 -4 -4 -5 -5 -5 -5 -5 -5 -5 -5 -5 -5 -4 -4 -3 -2 -2 -1 -1 0 2
-2 -3 -3 -3 -3 -3 -4 -4 -4 -4 -4 -4 -4 -5 -5 -5 -5 -5 -6 -6 -6 -6 -6 -6 -6 -6 -5 -5 -5 -5 -4 -4 -3 -2 -2 -2 -0 1
-3 -4 -4 -4 -4 -4 -4 -5 -5 -5 -5 -6 -5 -6 -6 -7 -6 -7 -7 -7 -7 -6 -6 -6 -6 -6 -6 -5 -6 -5 -4 -4 -3 -3 -2 -2 -2 -0
-4 -4 -4 -4 -5 -5 -5 -5 -5 -6 -7 -7 -7 -7 -8 -7 -7 -7 -7 -7 -7 -7 -7 -6 -7 -6 -6 -6 -6 -5 -5 -5 -4 -3 -2 -3 -2 -1
-4 -4 -5 -5 -5 -6 -6 -7 -8 -8 -9 -9 -9 -9 -8 -8 -8 -8 -8 -8 -8 -7 -7 -7 -6 -6 -6 -6 -6 -6 -5 -5 -4 -3 -3 -3 -3 -2
-5 -5 -5 -5 -6 -7 -7 -8 -9 -9 -10 -10 -10 -9 -9 -9 -9 -9 -9 -8 -8 -8 -7 -7 -7 -7 -7 -6 -6 -6 -5 -6 -5 -4 -3 -3 -4 -3
-5 -6 -6 -6 -7 -7 -8 -9 -9 -10 -10 -10 -10 -10 -9 -9 -9 -9 -10 -9 -9 -8 -8 -8 -7 -7 -7 -7 -6 -6 -6 -6 -6 -5 -4 -4 -3 -3
-6 -6 -7 -7 -7 -8 -8 -9 -9 -10 -11 -11 -10 -10 -10 -10 -10 -10 -10 -10 -10 -9 -9 -8 -8 -8 -7 -7 -7 -6 -7 -6 -6 -5 -5 -4 -4 -4
-7 -7 -7 -8 -8 -8 -9 -9 -9 -10 -11 -11 -10 -11 -11 -10 -10 -10 -10 -10 -9 -9 -8 -8 -8 -7 -7 -7 -7 -7 -6 -6 -6 -5 -5 -5 -4 -4
-7 -8 -8 -8 -8 -9 -9 -9 -9 -10 -11 -11 -10 -10 -11 -10 -10 -10 -9 -10 -9 -9 -8 -8 -8 -7 -7 -6 -6 -7 -6 -6 -6 -5 -5 -5 -5 -4
-8 -8 -8 -9 -9 -9 -9 -9 -9 -10 -11 -10 -11 -11 -11 -10 -10 -10 -10 -10 -10 -9 -8 -9 -8 -8 -7 -7 -7 -6 -6 -7 -6 -6 -5 -5 -5 -5
-8 -8 -9 -9 -9 -9 -9 -9 -10 -11 -11 -11 -12 -11 -11 -11 -11 -10 -10 -10 -9 -9 -8 -9 -9 -8 -8 -8 -7 -7 -6 -6 -6 -6 -6 -5 -5 -5
-8 -8 -9 -9 -9 -9 -9 -9 -11 -11 -12 -12 -12 -12 -11 -11 -11 -10 -10 -10 -9 -9 -8 -8 -9 -8 -8 -8 -7 -7 -6 -6 -6 -6 -6 -5 -5 -5
-8 -9 -9 -9 -9 -9 -10 -11 -11 -11 -12 -12 -12 -12 -12 -12 -11 -11 -10 -10 -9 -8 -7 -8 -8 -8 -8 -8 -8 -7 -7 -6 -6 -6 -6 -6 -6 -5
-9 -9 -9 -9 -10 -10 -10 -11 -11 -11 -12 -12 -12 -12 -12 -12 -12 -11 -11 -10 -9 -8 -8 -8 -8 -8 -8 -8 -8 -7 -7 -6 -6 -6 -6 -6 -6 -6
-9 -9 -9 -9 -10 -10 -10 -10 -11 -11 -11 -12 -12 -12 -12 -12 -12 -12 -11 -11 -10 -10 -9 -9 -9 -8 -8 -8 -8 -7 -7 -7 -7 -6 -6 -6 -6 -6
-9 -10 -10 -10 -10 -10 -10 -10 -11 -11 -11 -11 -12 -13 -13 -13 -12 -12 -12 -11 -11 -10 -10 -9 -9 -8 -8 -7 -7 -7 -7 -7 -6 -7 -6 -6 -7 -7
-10 -10 -10 -10 -10 -10 -10 -10 -11 -11 -11 -12 -12 -13 -13 -13 -13 -12 -12 -12 -12 -11 -10 -10 -9 -9 -8 -9 -8 -8 -8 -7 -7 -7 -7 -7 -7 -7
-10 -10 -10 -10 -10 -10 -10 -10 -11 -11 -12 -13 -12 -12 -13 -13 -13 -13 -13 -13 -12 -12 -11 -11 -11 -10 -10 -10 -9 -8 -8 -8 -8 -7 -7 -7 -7 -7
-9 -9 -9 -9 -10 -10 -10 -10 -11 -11 -12 -12 -12 -13 -13 -13 -13 -13 -13 -13 -13 -13 -12 -12 -11 -11 -10 -10 -9 -8 -8 -8 -8 -8 -8 -7 -7 -7
-9 -9 -9 -9 -9 -10 -10 -10 -11 -11 -12 -12 -13 -13 -13 -13 -13 -13 -13 -13 -13 -13 -13 -12 -11 -11 -10 -9 -9 -9 -8 -8 -8 -8 -8 -8 -8 -8
-8 -9 -9 -9 -9 -9 -10 -10 -11 -11 -12 -12 -12 -12 -12 -12 -13 -14 -13 -13 -13 -13 -13 -12 -11 -11 -10 -10 -10 -9 -9 -9 -9 -8 -8 -8 -8 -8

GFSNE_850_temp_051.txt.gz
Temp
-0 -1 -1 -2 -2 -3 -3 -3 -4 -4 -4 -4 -4 -4 -4 -4 -4 -4 -4 -4 -4 -4 -5 -5 -5 -5 -5 -5 -5 -5 -5 -5 -5 -5 -3 -2 -3 -2
-1 -1 -2 -3 -3 -3 -4 -4 -4 -4 -4 -5 -5 -5 -5 -5 -5 -5 -5 -5 -5 -6 -6 -6 -6 -6 -6 -6 -6 -6 -5 -5 -5 -5 -4 -3 -3 -3
-2 -2 -3 -4 -4 -4 -4 -4 -4 -4 -5 -5 -5 -5 -6 -6 -6 -6 -6 -7 -7 -7 -7 -7 -7 -6 -6 -6 -6 -5 -6 -5 -5 -5 -4 -3 -3 -3
-3 -3 -4 -4 -4 -4 -4 -5 -5 -5 -6 -6 -6 -6 -7 -8 -8 -8 -8 -7 -7 -7 -7 -7 -7 -7 -7 -7 -6 -6 -6 -5 -5 -5 -5 -4 -3 -2
-4 -4 -4 -5 -5 -5 -5 -5 -6 -6 -7 -8 -8 -8 -9 -9 -8 -8 -8 -8 -8 -8 -8 -7 -7 -7 -7 -7 -6 -6 -6 -6 -5 -6 -5 -4 -4 -3
-4 -5 -5 -5 -5 -5 -6 -6 -7 -7 -8 -9 -9 -10 -10 -9 -9 -9 -9 -9 -9 -8 -8 -8 -8 -7 -7 -7 -7 -6 -6 -6 -6 -6 -5 -4 -4 -4
-5 -5 -5 -5 -6 -6 -7 -7 -7 -8 -9 -9 -10 -10 -10 -10 -9 -9 -10 -10 -9 -9 -8 -8 -8 -7 -7 -7 -7 -7 -6 -6 -6 -6 -6 -5 -5 -5
-5 -5 -6 -6 -6 -7 -7 -8 -8 -9 -9 -10 -11 -11 -10 -10 -10 -10 -10 -10 -10 -9 -10 -9 -8 -7 -7 -7 -7 -7 -7 -6 -6 -6 -6 -6 -5 -5
-6 -6 -7 -7 -7 -7 -8 -8 -8 -9 -9 -10 -11 -11 -11 -11 -11 -11 -10 -10 -10 -9 -10 -9 -8 -8 -7 -7 -7 -7 -7 -7 -7 -7 -6 -6 -5 -5
-6 -6 -7 -7 -8 -8 -8 -8 -8 -9 -9 -10 -11 -11 -11 -11 -11 -11 -11 -10 -10 -9 -9 -9 -8 -8 -7 -7 -7 -7 -7 -7 -7 -6 -6 -6 -5 -5
-6 -7 -7 -8 -8 -8 -9 -9 -8 -8 -9 -10 -10 -11 -11 -11 -11 -11 -10 -10 -10 -9 -9 -9 -9 -8 -7 -7 -7 -7 -7 -7 -7 -7 -7 -6 -6 -5
-7 -7 -8 -8 -8 -9 -9 -9 -9 -9 -9 -10 -10 -11 -11 -11 -11 -11 -11 -11 -10 -9 -9 -9 -8 -8 -8 -7 -7 -7 -7 -7 -7 -7 -7 -7 -6 -6
-7 -8 -8 -8 -9 -9 -9 -9 -9 -9 -10 -10 -11 -11 -12 -12 -11 -11 -11 -11 -10 -10 -9 -9 -8 -8 -8 -8 -7 -7 -7 -6 -7 -7 -7 -7 -6 -6
-7 -8 -8 -9 -9 -9 -9 -9 -10 -10 -11 -11 -12 -11 -12 -12 -12 -11 -11 -11 -10 -10 -9 -8 -9 -8 -8 -8 -8 -7 -7 -6 -6 -6 -7 -7 -6 -6
-8 -8 -8 -8 -9 -9 -10 -10 -10 -11 -11 -11 -12 -12 -12 -12 -12 -12 -11 -11 -10 -9 -9 -9 -8 -8 -8 -8 -8 -7 -7 -7 -6 -6 -6 -6 -6 -6
-8 -8 -9 -9 -9 -9 -10 -10 -11 -11 -11 -12 -12 -12 -12 -12 -12 -12 -12 -11 -11 -9 -9 -9 -9 -8 -8 -8 -8 -7 -7 -7 -7 -6 -7 -6 -6 -6
-8 -9 -9 -9 -9 -9 -10 -10 -10 -11 -11 -11 -11 -12 -12 -12 -12 -12 -12 -12 -12 -11 -10 -9 -9 -8 -8 -8 -8 -7 -7 -7 -6 -7 -7 -7 -7 -7
-9 -9 -9 -9 -9 -9 -10 -10 -10 -11 -11 -11 -11 -11 -12 -13 -13 -12 -12 -12 -12 -12 -11 -11 -10 -9 -8 -8 -8 -8 -7 -7 -6 -7 -7 -7 -7 -7
-9 -10 -10 -10 -10 -10 -10 -10 -10 -11 -11 -11 -11 -11 -12 -12 -13 -13 -13 -13 -12 -12 -11 -12 -11 -10 -9 -9 -8 -8 -8 -8 -7 -7 -7 -7 -7 -7
-9 -9 -10 -10 -10 -10 -10 -10 -10 -11 -11 -11 -11 -11 -12 -12 -13 -13 -13 -13 -13 -13 -12 -12 -11 -11 -11 -11 -10 -8 -8 -8 -8 -8 -7 -7 -7 -7
-8 -9 -9 -9 -9 -10 -10 -10 -10 -10 -10 -11 -11 -11 -11 -12 -12 -13 -13 -13 -13 -13 -12 -12 -12 -11 -10 -10 -9 -9 -8 -8 -8 -8 -8 -8 -8 -8
-8 -8 -9 -9 -9 -9 -9 -10 -10 -10 -10 -11 -11 -11 -11 -12 -12 -13 -13 -13 -13 -13 -12 -12 -12 -10 -10 -10 -10 -9 -9 -8 -9 -9 -8 -8 -8 -8
-8 -8 -8 -8 -9 -9 -9 -10 -10 -10 -10 -10 -11 -11 -12 -12 -12 -13 -13 -14 -14 -13 -12 -11 -11 -11 -11 -10 -10 -9 -9 -9 -9 -9 -9 -8 -9 -9

GFSNE_850_temp_057.txt.gz
Temp
-1 -1 -1 -2 -2 -3 -3 -3 -3 -4 -4 -4 -5 -5 -5 -5 -5 -5 -5 -5 -6 -6 -6 -6 -6 -7 -7 -7 -6 -6 -6 -6 -5 -5 -4 -4 -4 -3
-1 -1 -1 -2 -3 -3 -4 -4 -4 -4 -5 -5 -5 -6 -6 -6 -6 -6 -6 -6 -7 -7 -8 -8 -8 -8 -8 -7 -7 -7 -7 -6 -6 -6 -5 -5 -4 -4
-2 -2 -2 -3 -4 -4 -4 -4 -5 -6 -6 -5 -6 -6 -6 -7 -7 -7 -7 -8 -8 -8 -8 -8 -8 -8 -8 -8 -7 -7 -7 -7 -7 -6 -6 -6 -5 -5
-2 -2 -3 -4 -4 -5 -5 -5 -5 -6 -6 -6 -6 -7 -7 -7 -8 -8 -8 -9 -9 -9 -9 -9 -9 -8 -8 -8 -8 -7 -7 -7 -6 -6 -6 -6 -6 -6
-3 -4 -4 -5 -5 -5 -5 -5 -6 -6 -7 -7 -7 -7 -8 -7 -8 -8 -9 -9 -9 -9 -9 -9 -8 -8 -8 -8 -8 -8 -7 -7 -7 -6 -6 -6 -6 -6
-4 -5 -5 -5 -5 -5 -6 -6 -6 -7 -7 -8 -8 -8 -8 -8 -9 -9 -9 -10 -9 -9 -9 -9 -9 -9 -9 -9 -8 -7 -7 -7 -7 -7 -7 -6 -6 -6
-4 -5 -5 -5 -6 -6 -6 -6 -7 -7 -8 -8 -9 -8 -8 -8 -10 -10 -10 -10 -10 -10 -9 -9 -9 -8 -8 -8 -8 -8 -7 -7 -7 -7 -7 -6 -6 -6
-4 -5 -6 -6 -6 -6 -6 -7 -7 -8 -8 -9 -9 -9 -9 -10 -10 -11 -11 -11 -11 -10 -10 -9 -9 -8 -8 -8 -8 -8 -7 -7 -7 -7 -7 -8 -7 -7
-5 -6 -6 -6 -6 -6 -7 -8 -8 -8 -9 -9 -9 -9 -9 -10 -11 -11 -11 -11 -11 -11 -11 -10 -9 -8 -8 -8 -8 -7 -7 -7 -7 -7 -7 -7 -7 -7
-6 -6 -7 -7 -7 -7 -7 -8 -8 -9 -9 -9 -9 -9 -10 -10 -11 -12 -12 -12 -11 -11 -10 -10 -9 -8 -8 -7 -7 -7 -7 -7 -7 -7 -7 -7 -7 -6
-6 -6 -7 -7 -7 -8 -8 -9 -9 -9 -9 -9 -9 -10 -10 -11 -11 -12 -12 -12 -12 -11 -10 -10 -9 -9 -8 -7 -7 -8 -8 -7 -8 -7 -7 -6 -6 -6
-6 -6 -7 -7 -8 -8 -8 -9 -9 -9 -9 -9 -9 -10 -11 -11 -11 -12 -12 -12 -12 -12 -11 -11 -9 -9 -9 -8 -8 -8 -8 -8 -8 -7 -7 -6 -6 -7
-6 -6 -7 -7 -8 -8 -8 -9 -9 -9 -9 -10 -10 -10 -10 -11 -11 -11 -12 -12 -12 -12 -11 -11 -10 -9 -9 -9 -7 -7 -8 -8 -7 -7 -7 -7 -7 -7
-6 -6 -7 -7 -8 -8 -8 -9 -9 -9 -10 -10 -10 -10 -11 -11 -11 -11 -12 -12 -12 -12 -11 -11 -10 -10 -9 -9 -9 -7 -7 -8 -7 -7 -7 -7 -7 -7
-6 -6 -7 -7 -8 -8 -8 -9 -9 -10 -10 -10 -10 -11 -11 -11 -11 -11 -11 -12 -12 -11 -11 -11 -11 -10 -9 -9 -9 -9 -8 -7 -7 -7 -7 -7 -7 -8
-7 -7 -7 -7 -8 -8 -9 -9 -9 -9 -10 -10 -10 -11 -11 -11 -11 -11 -12 -12 -12 -11 -11 -11 -11 -10 -9 -8 -9 -9 -8 -8 -7 -7 -7 -7 -7 -7
-7 -7 -7 -7 -8 -8 -8 -9 -9 -10 -10 -10 -10 -11 -11 -11 -11 -11 -12 -12 -12 -12 -11 -11 -11 -10 -9 -9 -9 -9 -8 -8 -8 -7 -7 -7 -7 -7
-7 -7 -7 -7 -7 -8 -8 -9 -9 -10 -10 -10 -10 -11 -11 -11 -11 -11 -12 -12 -13 -12 -12 -12 -11 -10 -9 -9 -9 -9 -8 -8 -7 -7 -7 -7 -7 -7
-7 -7 -7 -7 -7 -8 -8 -9 -10 -10 -10 -10 -11 -11 -11 -11 -11 -11 -11 -12 -13 -12 -12 -12 -12 -12 -11 -10 -9 -9 -9 -9 -8 -8 -8 -7 -7 -7
-7 -7 -7 -7 -7 -8 -8 -9 -10 -10 -10 -10 -10 -11 -11 -11 -12 -12 -12 -12 -13 -12 -12 -12 -12 -12 -11 -11 -10 -9 -9 -9 -8 -8 -8 -8 -8 -7
-7 -7 -7 -7 -7 -8 -8 -9 -9 -10 -10 -10 -10 -11 -11 -11 -12 -12 -12 -12 -13 -12 -12 -12 -11 -11 -10 -10 -10 -10 -9 -9 -9 -9 -8 -8 -8 -8
-7 -7 -7 -8 -7 -7 -8 -8 -9 -9 -10 -10 -10 -10 -11 -11 -11 -12 -12 -12 -12 -12 -12 -12 -11 -11 -11 -10 -10 -10 -9 -9 -9 -9 -9 -9 -8 -8
-7 -8 -8 -8 -7 -7 -8 -8 -9 -9 -9 -10 -10 -10 -10 -11 -11 -12 -12 -12 -12 -12 -12 -11 -11 -11 -11 -11 -10 -10 -10 -9 -9 -10 -9 -9 -9 -9

GFSNE_850_temp_063.txt.gz
Temp
1 1 0 -0 -1 -1 -2 -3 -3 -3 -2 -3 -4 -5 -5 -5 -6 -5 -5 -5 -5 -5 -5 -5 -5 -6 -6 -8 -8 -7 -7 -6 -6 -5 -5 -5 -4 -4
0 -0 -1 -1 -2 -2 -2 -3 -4 -4 -4 -4 -4 -5 -6 -6 -6 -6 -6 -6 -5 -5 -6 -6 -6 -6 -7 -9 -8 -8 -8 -7 -7 -6 -6 -6 -5 -5
-0 -1 -2 -2 -2 -2 -3 -4 -4 -4 -5 -4 -6 -6 -6 -6 -7 -7 -6 -6 -6 -6 -7 -7 -7 -8 -8 -8 -8 -8 -9 -9 -8 -8 -7 -6 -6 -6
-1 -2 -2 -2 -2 -3 -5 -5 -5 -5 -5 -5 -5 -7 -7 -7 -7 -7 -7 -7 -7 -8 -7 -7 -8 -8 -8 -8 -8 -9 -9 -9 -9 -9 -8 -7 -7 -7
-2 -2 -2 -3 -3 -4 -5 -5 -5 -6 -6 -6 -6 -7 -8 -8 -8 -8 -8 -7 -8 -7 -7 -8 -9 -9 -9 -9 -9 -9 -8 -8 -8 -8 -8 -8 -8 -8
-2 -2 -3 -3 -3 -4 -5 -6 -6 -6 -6 -7 -7 -7 -8 -8 -8 -9 -9 -9 -10 -8 -9 -10 -9 -9 -9 -9 -9 -8 -8 -8 -8 -8 -8 -7 -7 -7
-2 -3 -3 -3 -4 -4 -5 -6 -6 -6 -7 -7 -7 -7 -8 -8 -9 -9 -10 -10 -10 -10 -10 -10 -10 -10 -10 -9 -8 -8 -8 -8 -8 -8 -7 -7 -7 -7
-3 -3 -3 -4 -4 -4 -5 -6 -6 -7 -7 -7 -7 -8 -8 -9 -10 -10 -10 -10 -10 -10 -10 -10 -10 -10 -9 -9 -8 -8 -8 -7 -7 -7 -7 -7 -7 -7
-3 -3 -4 -4 -4 -5 -5 -6 -7 -7 -7 -8 -8 -8 -9 -9 -10 -10 -11 -11 -10 -10 -11 -10 -10 -10 -9 -8 -8 -8 -7 -7 -7 -7 -7 -7 -7 -7
-3 -4 -4 -4 -5 -5 -6 -7 -7 -8 -7 -8 -8 -9 -9 -9 -9 -10 -11 -11 -11 -11 -11 -11 -10 -10 -9 -7 -8 -8 -8 -8 -8 -8 -8 -7 -8 -8
-3 -4 -4 -5 -5 -5 -6 -7 -7 -8 -7 -8 -9 -9 -9 -9 -9 -11 -11 -11 -11 -10 -11 -11 -10 -10 -10 -7 -8 -7 -7 -8 -8 -8 -7 -7 -7 -7
-4 -4 -4 -5 -5 -5 -6 -7 -7 -7 -8 -8 -9 -9 -9 -9 -10 -10 -12 -12 -11 -11 -11 -12 -11 -11 -10 -9 -9 -9 -8 -8 -8 -7 -7 -7 -8 -7
-5 -5 -5 -5 -5 -5 -6 -7 -7 -7 -8 -8 -9 -9 -9 -10 -10 -11 -12 -12 -12 -11 -11 -12 -12 -11 -11 -11 -10 -10 -9 -9 -8 -7 -7 -7 -7 -7
-6 -6 -6 -5 -5 -5 -6 -6 -7 -7 -8 -8 -9 -9 -9 -10 -11 -11 -11 -11 -12 -12 -12 -12 -13 -12 -12 -12 -10 -10 -10 -9 -8 -8 -7 -7 -7 -7
-7 -7 -7 -6 -6 -6 -6 -7 -7 -7 -8 -8 -8 -9 -9 -10 -11 -11 -11 -11 -11 -10 -11 -12 -13 -12 -12 -12 -11 -10 -10 -9 -9 -8 -8 -7 -7 -7
-9 -8 -7 -7 -7 -7 -6 -6 -7 -7 -7 -8 -8 -9 -9 -10 -10 -11 -11 -11 -12 -11 -11 -11 -12 -12 -12 -12 -11 -10 -10 -9 -9 -8 -8 -7 -7 -8
-9 -8 -7 -7 -7 -7 -7 -6 -7 -7 -7 -8 -8 -9 -9 -10 -10 -11 -11 -11 -12 -12 -12 -12 -11 -11 -11 -11 -11 -10 -10 -10 -9 -8 -8 -8 -8 -8
-8 -8 -7 -7 -7 -7 -7 -7 -7 -7 -7 -8 -8 -9 -9 -10 -10 -11 -11 -11 -12 -12 -12 -12 -12 -11 -11 -11 -10 -10 -10 -10 -9 -9 -8 -8 -8 -8
-8 -7 -7 -7 -7 -7 -7 -7 -7 -7 -7 -8 -8 -9 -9 -10 -10 -11 -11 -12 -12 -13 -12 -13 -12 -12 -11 -11 -11 -10 -10 -9 -9 -10 -9 -9 -8 -8
-10 -9 -8 -8 -7 -7 -8 -8 -7 -8 -8 -8 -8 -9 -10 -10 -11 -11 -11 -12 -12 -13 -13 -12 -13 -12 -12 -12 -12 -10 -10 -10 -9 -9 -9 -8 -8 -8
-11 -11 -10 -9 -9 -9 -8 -8 -8 -8 -8 -9 -9 -9 -10 -10 -11 -11 -11 -11 -12 -12 -13 -12 -12 -11 -11 -11 -11 -10 -10 -10 -10 -10 -9 -9 -9 -9
-13 -12 -12 -12 -10 -9 -9 -9 -9 -9 -9 -9 -9 -9 -10 -10 -11 -11 -11 -11 -12 -12 -13 -12 -11 -11 -11 -12 -11 -11 -11 -10 -10 -10 -10 -10 -10 -10
-14 -14 -13 -12 -12 -11 -10 -9 -10 -10 -9 -9 -9 -9 -10 -10 -10 -11 -11 -11 -12 -12 -13 -12 -11 -11 -11 -11 -11 -12 -11 -10 -10 -10 -11 -10 -10 -10

GFSNE_850_temp_069.txt.gz
Temp
2 3 1 2 2 2 2 1 2 1 2 2 2 2 1 0 -1 -1 -2 -3 -4 -5 -5 -5 -4 -4 -5 -5 -5 -5 -7 -7 -7 -6 -6 -5 -5 -4
2 1 1 1 2 1 1 1 1 1 1 1 2 2 1 0 -0 -1 -3 -3 -4 -5 -5 -5 -5 -5 -5 -5 -5 -6 -7 -8 -8 -8 -7 -6 -6 -6
1 0 1 1 1 1 1 1 1 0 0 1 1 1 0 -0 -1 -2 -3 -3 -4 -4 -5 -5 -6 -6 -6 -6 -6 -6 -6 -7 -8 -8 -8 -8 -7 -7
0 0 1 1 1 0 0 -0 -0 -0 -0 -0 -0 -0 -0 -1 -1 -2 -3 -3 -4 -4 -5 -6 -6 -6 -6 -7 -7 -7 -7 -7 -8 -9 -9 -9 -8 -8
0 1 1 1 1 0 -0 -0 -0 -0 -0 -0 -0 -1 -1 -1 -1 -2 -3 -4 -4 -4 -5 -5 -5 -6 -7 -7 -7 -7 -8 -8 -8 -8 -8 -8 -8 -8
0 0 0 0 -0 -0 -0 -1 -1 -1 -1 -1 -1 -1 -1 -1 -2 -3 -3 -3 -4 -4 -5 -5 -5 -6 -6 -6 -7 -7 -7 -8 -8 -8 -8 -7 -7 -7
1 1 0 0 -0 -1 -1 -2 -2 -2 -2 -2 -2 -1 -1 -1 -2 -3 -4 -4 -4 -5 -5 -5 -5 -5 -6 -6 -6 -6 -8 -8 -8 -8 -8 -7 -7 -7
0 0 0 0 -0 -1 -1 -1 -2 -3 -3 -4 -4 -3 -3 -3 -4 -4 -5 -5 -5 -5 -5 -5 -6 -6 -6 -6 -6 -7 -7 -7 -7 -8 -7 -7 -7 -7
-1 -1 -1 -0 -0 -0 -1 -1 -3 -4 -4 -4 -4 -4 -5 -5 -5 -5 -6 -6 -6 -6 -6 -7 -7 -7 -6 -6 -7 -7 -8 -7 -8 -8 -8 -7 -7 -7
-2 -1 -1 -1 -1 -2 -2 -2 -3 -3 -4 -4 -5 -5 -6 -6 -6 -6 -7 -7 -7 -7 -7 -7 -7 -7 -7 -7 -7 -7 -8 -8 -8 -8 -8 -8 -8 -7
-3 -3 -3 -3 -3 -3 -3 -4 -4 -4 -4 -4 -4 -5 -5 -6 -6 -7 -7 -8 -8 -7 -7 -7 -7 -7 -7 -8 -7 -7 -8 -8 -8 -8 -8 -8 -8 -7
-4 -5 -5 -5 -5 -5 -5 -6 -6 -5 -5 -5 -5 -5 -6 -6 -6 -7 -8 -8 -8 -8 -7 -7 -7 -7 -8 -8 -8 -8 -8 -8 -8 -8 -8 -8 -8 -8
-5 -5 -6 -7 -7 -7 -7 -7 -7 -7 -6 -6 -6 -5 -6 -7 -8 -7 -8 -9 -9 -8 -8 -8 -8 -8 -9 -9 -8 -8 -8 -8 -8 -8 -8 -8 -7 -8
-7 -7 -6 -6 -7 -7 -7 -7 -7 -8 -7 -7 -7 -6 -6 -7 -7 -7 -8 -8 -9 -9 -8 -9 -9 -9 -10 -10 -9 -9 -9 -9 -9 -8 -8 -7 -7 -7
-7 -7 -7 -7 -7 -7 -7 -7 -7 -8 -8 -8 -7 -7 -6 -7 -7 -7 -8 -8 -8 -9 -9 -9 -9 -10 -10 -10 -10 -9 -9 -9 -8 -8 -8 -8 -7 -7
-8 -8 -8 -8 -8 -7 -7 -6 -6 -7 -7 -7 -7 -7 -6 -7 -7 -7 -8 -8 -9 -9 -9 -9 -9 -10 -10 -10 -10 -10 -9 -9 -8 -8 -8 -7 -7 -7
-9 -10 -10 -10 -10 -9 -8 -7 -6 -6 -7 -6 -7 -7 -7 -7 -7 -7 -8 -8 -9 -9 -9 -9 -9 -9 -10 -10 -10 -9 -9 -9 -8 -8 -8 -8 -7 -7
-11 -11 -11 -12 -12 -11 -10 -9 -7 -7 -6 -6 -7 -7 -7 -7 -7 -7 -8 -8 -9 -9 -9 -9 -8 -9 -9 -9 -8 -9 -9 -9 -9 -9 -9 -8 -8 -8
-12 -12 -12 -13 -13 -13 -12 -11 -10 -8 -7 -7 -7 -7 -7 -7 -8 -8 -8 -8 -9 -9 -9 -9 -9 -9 -9 -8 -8 -9 -10 -10 -10 -9 -9 -9 -9 -8
-13 -13 -13 -13 -14 -14 -14 -13 -11 -9 -8 -7 -7 -8 -8 -8 -8 -8 -8 -8 -9 -9 -9 -9 -9 -9 -9 -9 -10 -9 -9 -9 -10 -10 -10 -10 -8 -8
-14 -14 -14 -14 -15 -15 -15 -14 -13 -11 -10 -9 -8 -8 -8 -8 -8 -8 -8 -9 -9 -9 -9 -9 -9 -9 -9 -9 -10 -10 -9 -9 -9 -9 -9 -9 -9 -8
-15 -16 -16 -16 -16 -16 -16 -16 -15 -12 -11 -11 -9 -8 -8 -8 -8 -8 -8 -9 -9 -10 -10 -9 -9 -10 -10 -10 -9 -9 -9 -9 -9 -9 -9 -9 -9 -10
-17 -17 -17 -17 -18 -17 -17 -17 -17 -14 -13 -13 -12 -10 -9 -9 -8 -8 -9 -9 -9 -10 -10 -10 -10 -10 -10 -10 -10 -10 -10 -10 -10 -9 -9 -9 -9 -9

GFSNE_850_temp_075.txt.gz
Temp
5 5 4 3 4 3 3 2 2 2 2 2 2 2 2 2 2 1 1 1 1 0 -0 -0 -1 -2 -2 -3 -4 -5 -5 -6 -6 -7 -7 -7 -6 -6
5 4 3 4 3 3 2 1 2 2 1 1 1 1 1 0 1 1 1 0 0 -0 -0 -1 -2 -2 -3 -3 -4 -5 -5 -6 -6 -6 -8 -7 -7 -7
4 4 4 3 2 2 1 1 1 1 1 1 1 1 0 -0 -0 -0 -0 -0 -0 -1 -1 -1 -2 -3 -3 -4 -4 -5 -5 -6 -6 -7 -7 -8 -8 -7
4 4 3 2 2 1 1 1 1 1 1 0 0 -0 -0 -1 -1 -1 -1 -1 -1 -1 -1 -2 -3 -3 -4 -4 -4 -5 -5 -6 -6 -7 -7 -7 -7 -8
3 2 2 1 1 1 1 1 1 0 0 -0 -0 -0 -1 -1 -1 -1 -1 -1 -1 -1 -3 -4 -4 -4 -4 -4 -5 -5 -6 -6 -6 -6 -7 -7 -7 -7
2 1 1 1 0 0 1 0 0 0 -0 -0 -0 -1 -1 -1 -1 -1 -2 -2 -2 -3 -3 -4 -4 -4 -5 -4 -5 -5 -6 -6 -6 -7 -7 -7 -7 -7
0 0 0 0 0 0 -0 -1 -1 -1 -1 -1 -1 -1 -1 -2 -2 -2 -3 -3 -4 -4 -3 -3 -4 -5 -5 -5 -5 -6 -6 -6 -7 -7 -7 -7 -8 -7
-0 -0 -0 -0 -0 -0 -0 -1 -1 -1 -2 -2 -3 -3 -3 -3 -3 -3 -3 -4 -5 -4 -5 -4 -5 -5 -5 -6 -6 -6 -6 -7 -7 -7 -7 -8 -8 -8
-0 -0 0 -0 -1 -1 -1 -1 -2 -2 -2 -3 -3 -4 -4 -5 -5 -4 -4 -5 -4 -4 -6 -5 -5 -6 -6 -6 -6 -7 -7 -7 -7 -8 -8 -8 -8 -8
-1 -1 -1 -2 -2 -2 -2 -2 -2 -2 -3 -3 -4 -4 -5 -6 -6 -6 -5 -5 -5 -5 -6 -5 -5 -6 -6 -6 -7 -7 -7 -7 -8 -8 -8 -8 -8 -8
-1 -1 -2 -2 -3 -3 -3 -3 -3 -3 -4 -5 -6 -6 -6 -7 -7 -7 -7 -7 -6 -6 -5 -6 -6 -6 -7 -7 -7 -7 -7 -8 -8 -8 -8 -8 -8 -8
-2 -2 -3 -3 -4 -4 -5 -5 -5 -5 -6 -6 -6 -6 -6 -6 -6 -8 -8 -8 -7 -6 -6 -7 -7 -7 -8 -8 -8 -8 -8 -8 -8 -8 -9 -9 -9 -8
-2 -3 -4 -4 -5 -5 -6 -7 -8 -8 -8 -8 -7 -6 -6 -6 -6 -7 -8 -8 -7 -7 -6 -7 -7 -8 -8 -8 -8 -8 -8 -8 -9 -9 -9 -9 -9 -9
-4 -4 -5 -5 -6 -6 -7 -8 -8 -9 -9 -9 -9 -8 -6 -6 -6 -7 -8 -7 -7 -6 -7 -7 -7 -8 -8 -8 -8 -8 -9 -9 -9 -9 -9 -9 -9 -8
-5 -6 -6 -7 -7 -7 -8 -9 -9 -10 -10 -10 -9 -9 -7 -6 -7 -7 -8 -7 -7 -7 -7 -7 -8 -8 -8 -9 -9 -9 -9 -9 -9 -9 -9 -9 -8 -8
-6 -7 -7 -8 -9 -10 -9 -10 -10 -11 -11 -11 -10 -9 -8 -8 -7 -7 -7 -7 -7 -7 -7 -7 -8 -8 -8 -9 -9 -9 -9 -9 -9 -9 -9 -9 -8 -8
-8 -8 -9 -10 -11 -11 -11 -12 -12 -12 -11 -11 -11 -10 -9 -8 -7 -7 -7 -7 -7 -7 -7 -8 -8 -8 -9 -9 -9 -9 -9 -9 -9 -9 -9 -9 -8 -8
-9 -10 -11 -12 -13 -13 -13 -13 -14 -14 -13 -13 -12 -12 -10 -10 -8 -8 -7 -7 -7 -7 -7 -7 -8 -8 -9 -9 -9 -9 -9 -9 -9 -9 -10 -10 -9 -8
-12 -13 -13 -13 -14 -14 -14 -15 -15 -15 -15 -15 -14 -13 -12 -11 -10 -8 -7 -7 -7 -7 -7 -7 -8 -8 -9 -9 -9 -9 -9 -9 -9 -9 -9 -9 -9 -9
-13 -14 -14 -15 -15 -15 -15 -16 -16 -16 -16 -16 -15 -15 -14 -13 -11 -9 -8 -8 -8 -8 -7 -8 -8 -8 -9 -9 -9 -9 -9 -9 -9 -9 -9 -9 -9 -9
-15 -15 -15 -16 -16 -16 -17 -17 -18 -18 -18 -18 -16 -16 -16 -14 -12 -12 -10 -8 -8 -8 -8 -8 -8 -9 -9 -9 -9 -9 -9 -9 -9 -9 -9 -9 -9 -9
-16 -16 -17 -17 -17 -18 -18 -18 -19 -18 -18 -18 -18 -18 -17 -16 -14 -13 -11 -10 -8 -8 -8 -8 -8 -9 -9 -9 -10 -9 -9 -9 -10 -9 -10 -10 -10 -9
-17 -17 -18 -18 -19 -19 -19 -19 -19 -19 -19 -19 -19 -18 -17 -16 -15 -14 -12 -11 -9 -8 -8 -8 -9 -10 -10 -10 -9 -10 -10 -10 -10 -10 -10 -9 -9 -9